This is the latest recevied weather packets stored in our database for station/object KA1JKB. If no packets are shown the sender has not sent any weather packets the latest 10 day(s).
| Time | Temp. | Humidity | Pressure | Rain* | Wind** | Luminosity | Snow |
|---|---|---|---|---|---|---|---|
| 1777357862 | 15° C | 99% | 1002.8 hPa | 0 mm | - | 0 W/m² | - |
| 1777357559 | 15° C | 98% | 1002.5 hPa | 0 mm | - | 0 W/m² | - |
| 1777357256 | 15° C | 97% | 1002.3 hPa | 0 mm | - | 0 W/m² | - |
| 1777356953 | 15° C | 98% | 1002.3 hPa | 0 mm | - | 0 W/m² | - |
| 1777356650 | 15° C | 98% | 1002.5 hPa | 0 mm | - | 0 W/m² | - |
| 1777356347 | 15° C | 98% | 1001.9 hPa | 0 mm | - | 0 W/m² | - |
| 1777356043 | 15° C | 98% | 1001.8 hPa | 0 mm | - | 0 W/m² | - |
| 1777355740 | 15° C | 98% | 1001.9 hPa | 0 mm | - | 0 W/m² | - |
| 1777355133 | 15° C | 98% | 1001.4 hPa | 1.78 mm | - | 0 W/m² | - |
| 1777354830 | 15° C | 97% | 1001.9 hPa | 0 mm | - | 0 W/m² | - |
| 1777354526 | 15° C | 97% | 1002.4 hPa | 0 mm | - | 0 W/m² | - |
| 1777354222 | 15° C | 96% | 1002.7 hPa | 1.27 mm | - | 0 W/m² | - |
| 1777353919 | 15° C | 96% | 1002.4 hPa | 0 mm | - | 0 W/m² | - |
| 1777353616 | 15° C | 99% | 1002.7 hPa | 1.78 mm | - | 0 W/m² | - |
| 1777353314 | 15° C | 99% | 1003.3 hPa | 3.05 mm | - | 0 W/m² | - |
| 1777353012 | 15° C | 99% | 1003.5 hPa | 3.05 mm | - | 0 W/m² | - |
| 1777352710 | 15° C | 99% | 1003.7 hPa | 3.56 mm | - | 0 W/m² | - |
| 1777352409 | 15° C | 99% | 1004.6 hPa | 4.32 mm | - | 0 W/m² | - |
| 1777352105 | 15° C | 99% | 1004.6 hPa | 4.32 mm | - | 0 W/m² | - |
| 1777351802 | 15° C | 99% | 1005.2 hPa | 4.32 mm | - | 0 W/m² | - |
| 1777351198 | 15° C | 99% | 1005.3 hPa | 3.05 mm | - | 0 W/m² | - |
| 1777350897 | 15° C | 99% | 1005.6 hPa | 1.27 mm | - | 0 W/m² | - |
| 1777350596 | 15° C | 99% | 1005.4 hPa | 3.05 mm | - | 0 W/m² | - |
| 1777350295 | 15° C | 99% | 1005.4 hPa | 4.32 mm | - | 0 W/m² | - |
| 1777349991 | 15.56° C | 99% | 1005.7 hPa | 3.05 mm | - | 0 W/m² | - |
* Rain latest hour (hover to see other rain measurements)
** Current wind speed in m/s (hover to see current wind gust speed)